AFL2112 UUEE-LGKR

Flight info

Callsign AFL2112
Flight time 3h 6m
Altitude 36000
Route LIDRI3H/24C LIDRI T781 REPNU N858 VEPIS DCT TOSPO Z367 KEFIR DCT KEKED DCT PARAK DCT PIVEX DCT ALELU DCT RINAV DCT PITAS
Aircraft B738/M-SABDFGRVYL/LB2

Departure

Time 2026-05-04 16:24
Airport Sheremetyevo International Airport (UUEE)

Arrival

Time 2026-05-04 19:31
Airport Corfu Ioannis Kapodistrias International Airport (LGKR)
Time Latitude Longitude Altitude Speed Heading
2026-05-04 15:35 55.96637 37.42199 609 ft 0 kts 75°
2026-05-04 16:14 55.96637 37.42194 609 ft 2 kts 75°
2026-05-04 16:14 55.96629 37.42142 609 ft 2 kts 75°
2026-05-04 16:15 55.96606 37.42091 610 ft 2 kts 10°
2026-05-04 16:16 55.96587 37.42095 610 ft 0 kts 343°
2026-05-04 16:19 55.96595 37.42091 610 ft 4 kts 343°
2026-05-04 16:19 55.96735 37.42023 611 ft 11 kts 345°
2026-05-04 16:20 55.96999 37.41999 612 ft 10 kts 75°
2026-05-04 16:20 55.97066 37.42430 607 ft 20 kts 75°
2026-05-04 16:21 55.97172 37.43047 603 ft 8 kts 17°
2026-05-04 16:22 55.97239 37.43030 604 ft 6 kts 343°
2026-05-04 16:22 55.97353 37.42899 606 ft 0 kts 250°
2026-05-04 16:23 55.97153 37.41598 617 ft 119 kts 255°
2026-05-04 16:24 55.96057 37.34002 2645 ft 170 kts 256°
2026-05-04 16:25 55.95512 37.29455 3534 ft 205 kts 261°
2026-05-04 16:26 55.94321 37.18187 5684 ft 263 kts 259°
2026-05-04 16:26 55.93327 37.08675 8149 ft 269 kts 262°
2026-05-04 16:27 55.92637 37.02096 9674 ft 275 kts 260°
2026-05-04 16:28 55.91443 36.91609 11220 ft 310 kts 259°
2026-05-04 16:28 55.90090 36.79584 12315 ft 356 kts 261°
2026-05-04 16:29 55.88134 36.61948 15222 ft 370 kts 260°
2026-05-04 16:30 55.86534 36.48292 17270 ft 383 kts 259°
2026-05-04 16:31 55.85452 36.38958 18602 ft 390 kts 260°
2026-05-04 16:31 55.83800 36.24657 20548 ft 400 kts 259°
2026-05-04 16:32 55.82091 36.10018 22354 ft 409 kts 259°
2026-05-04 16:33 55.80922 36.00087 23424 ft 417 kts 259°
2026-05-04 16:33 55.79717 35.89939 24535 ft 424 kts 259°
2026-05-04 16:34 55.78489 35.79669 25604 ft 430 kts 259°
2026-05-04 16:34 55.77866 35.74490 26099 ft 434 kts 259°
2026-05-04 16:35 55.75959 35.58755 27584 ft 443 kts 259°
2026-05-04 16:35 55.74716 35.42473 29290 ft 443 kts 266°
2026-05-04 16:36 55.74495 35.37098 29997 ft 439 kts 266°
2026-05-04 16:36 55.74083 35.26287 31073 ft 438 kts 266°
2026-05-04 16:37 55.73647 35.15514 32208 ft 434 kts 266°
2026-05-04 16:37 55.73415 35.10104 32653 ft 433 kts 266°
2026-05-04 16:37 55.72937 34.99374 33620 ft 431 kts 266°
2026-05-04 16:38 55.72459 34.88848 34466 ft 429 kts 266°
2026-05-04 16:39 55.71720 34.73069 35500 ft 428 kts 266°
2026-05-04 16:39 55.71132 34.62615 35856 ft 431 kts 263°
2026-05-04 16:40 55.67773 34.42292 35867 ft 429 kts 252°
2026-05-04 16:41 55.62521 34.17575 35867 ft 429 kts 251°
2026-05-04 16:43 55.57314 33.92843 35870 ft 430 kts 251°
2026-05-04 16:43 55.54177 33.78062 35869 ft 428 kts 251°
2026-05-04 16:45 55.48755 33.48128 35868 ft 428 kts 258°
2026-05-04 16:46 55.45170 33.22721 35867 ft 428 kts 256°
2026-05-04 16:47 55.42179 33.02513 35860 ft 427 kts 256°
2026-05-04 16:48 55.39129 32.82235 35863 ft 429 kts 256°
2026-05-04 16:49 55.36066 32.62133 35863 ft 428 kts 256°
2026-05-04 16:50 55.32969 32.42051 35867 ft 427 kts 256°
2026-05-04 16:51 55.30627 32.27026 35866 ft 428 kts 255°
2026-05-04 16:52 55.27461 32.06920 35864 ft 428 kts 255°
2026-05-04 16:53 55.25337 31.93552 35857 ft 428 kts 255°
2026-05-04 16:54 55.21854 31.71893 35855 ft 426 kts 255°
2026-05-04 16:55 55.16973 31.41986 35860 ft 427 kts 255°
2026-05-04 16:56 55.12848 31.17118 35868 ft 426 kts 254°
2026-05-04 16:57 55.10245 31.02263 35864 ft 425 kts 250°
2026-05-04 16:58 55.06135 30.88608 35869 ft 429 kts 238°
2026-05-04 16:58 55.04504 30.84248 35869 ft 429 kts 238°
2026-05-04 17:00 54.94914 30.58092 35861 ft 427 kts 239°
2026-05-04 17:01 54.86880 30.36366 35860 ft 428 kts 239°
2026-05-04 17:02 54.80432 30.19057 35866 ft 428 kts 238°
2026-05-04 17:03 54.75561 30.06055 35869 ft 429 kts 238°
2026-05-04 17:03 54.70699 29.93149 35873 ft 428 kts 238°
2026-05-04 17:04 54.64175 29.75943 35876 ft 428 kts 238°
2026-05-04 17:05 54.57659 29.58872 35877 ft 428 kts 238°
2026-05-04 17:06 54.52720 29.46014 35882 ft 429 kts 238°
2026-05-04 17:07 54.48316 29.34601 35879 ft 429 kts 237°
2026-05-04 17:07 54.44477 29.24697 35877 ft 429 kts 237°
2026-05-04 17:08 54.39488 29.11886 35877 ft 429 kts 237°
2026-05-04 17:09 54.36180 29.03425 35874 ft 429 kts 237°
2026-05-04 17:09 54.32850 28.94941 35878 ft 430 kts 237°
2026-05-04 17:10 54.24499 28.73780 35883 ft 429 kts 237°
2026-05-04 17:11 54.21172 28.65399 35885 ft 429 kts 237°
2026-05-04 17:12 54.16139 28.52776 35885 ft 430 kts 236°
2026-05-04 17:13 54.07682 28.31716 35887 ft 430 kts 236°
2026-05-04 17:14 54.00903 28.14960 35899 ft 431 kts 236°
2026-05-04 17:15 53.95771 28.02347 35902 ft 431 kts 236°
2026-05-04 17:16 53.88966 27.85715 35903 ft 431 kts 236°
2026-05-04 17:17 53.82136 27.69140 35899 ft 432 kts 236°
2026-05-04 17:18 53.75216 27.52463 35904 ft 433 kts 236°
2026-05-04 17:19 53.68302 27.35903 35911 ft 432 kts 236°
2026-05-04 17:20 53.61341 27.19337 35907 ft 433 kts 235°
2026-05-04 17:20 53.56141 27.07031 35919 ft 433 kts 235°
2026-05-04 17:21 53.49134 26.90553 35914 ft 433 kts 235°
2026-05-04 17:22 53.45629 26.82347 35922 ft 435 kts 235°
2026-05-04 17:23 53.38541 26.65844 35921 ft 434 kts 235°
2026-05-04 17:24 53.33265 26.53631 35925 ft 433 kts 236°
2026-05-04 17:25 53.26193 26.37336 35925 ft 435 kts 235°
2026-05-04 17:26 53.19079 26.21055 35927 ft 435 kts 234°
2026-05-04 17:27 53.10147 26.00771 35931 ft 435 kts 234°
2026-05-04 17:28 53.02970 25.84593 35923 ft 436 kts 234°
2026-05-04 17:29 52.92165 25.60409 35916 ft 436 kts 235°
2026-05-04 17:31 52.83126 25.40370 35921 ft 436 kts 235°
2026-05-04 17:32 52.73983 25.20254 35929 ft 438 kts 234°
2026-05-04 17:33 52.66671 25.04275 35930 ft 437 kts 234°
2026-05-04 17:34 52.59354 24.88401 35937 ft 438 kts 234°
2026-05-04 17:35 52.50122 24.68501 35942 ft 440 kts 235°
2026-05-04 17:36 52.46389 24.60502 35940 ft 439 kts 235°
2026-05-04 17:36 52.42701 24.52614 35941 ft 440 kts 234°
2026-05-04 17:37 52.38946 24.44609 35940 ft 439 kts 235°
2026-05-04 17:37 52.35241 24.36743 35941 ft 439 kts 235°
2026-05-04 17:38 52.31513 24.28850 35937 ft 440 kts 234°
2026-05-04 17:38 52.27763 24.20934 35936 ft 440 kts 234°
2026-05-04 17:39 52.22156 24.09145 35934 ft 439 kts 234°
2026-05-04 17:39 52.18413 24.01308 35933 ft 440 kts 234°
2026-05-04 17:40 52.14664 23.93483 35932 ft 439 kts 234°
2026-05-04 17:40 52.10908 23.85668 35936 ft 440 kts 234°
2026-05-04 17:41 52.07127 23.77820 35934 ft 439 kts 234°
2026-05-04 17:41 52.03257 23.70157 35934 ft 442 kts 229°
2026-05-04 17:42 51.98383 23.64152 35934 ft 446 kts 210°
2026-05-04 17:42 51.92726 23.59955 35935 ft 448 kts 205°
2026-05-04 17:43 51.86936 23.56088 35941 ft 450 kts 205°
2026-05-04 17:43 51.81181 23.52246 35939 ft 449 kts 205°
2026-05-04 17:44 51.75405 23.48331 35938 ft 449 kts 206°
2026-05-04 17:44 51.69640 23.44391 35944 ft 451 kts 206°
2026-05-04 17:45 51.63842 23.40424 35945 ft 451 kts 205°
2026-05-04 17:45 51.58057 23.36484 35946 ft 452 kts 205°
2026-05-04 17:46 51.52267 23.32552 35948 ft 453 kts 205°
2026-05-04 17:46 51.46479 23.28629 35946 ft 453 kts 205°
2026-05-04 17:47 51.40707 23.24728 35949 ft 453 kts 205°
2026-05-04 17:47 51.34899 23.20813 35949 ft 453 kts 205°
2026-05-04 17:48 51.29062 23.16890 35951 ft 454 kts 205°
2026-05-04 17:48 51.23213 23.12968 35951 ft 454 kts 205°
2026-05-04 17:49 51.17386 23.09074 35952 ft 455 kts 204°
2026-05-04 17:49 51.11569 23.05192 35957 ft 454 kts 205°
2026-05-04 17:50 51.05765 23.01329 35959 ft 455 kts 205°
2026-05-04 17:50 50.99917 22.97450 35957 ft 455 kts 205°
2026-05-04 17:51 50.94036 22.93559 35961 ft 456 kts 205°
2026-05-04 17:51 50.88199 22.89707 35966 ft 456 kts 205°
2026-05-04 17:52 50.82336 22.85849 35974 ft 455 kts 205°
2026-05-04 17:52 50.76469 22.82004 35985 ft 456 kts 204°
2026-05-04 17:53 50.70635 22.78191 35987 ft 457 kts 204°
2026-05-04 17:53 50.64775 22.74368 35985 ft 457 kts 204°
2026-05-04 17:54 50.58928 22.70560 35984 ft 457 kts 205°
2026-05-04 17:54 50.53062 22.66750 35985 ft 458 kts 204°
2026-05-04 17:55 50.47164 22.62926 35983 ft 458 kts 204°
2026-05-04 17:55 50.41304 22.59144 35987 ft 459 kts 204°
2026-05-04 17:56 50.35420 22.55358 35984 ft 459 kts 204°
2026-05-04 17:56 50.29532 22.51580 35982 ft 459 kts 204°
2026-05-04 17:57 50.23627 22.47802 35985 ft 461 kts 204°
2026-05-04 17:57 50.17712 22.44028 35986 ft 460 kts 204°
2026-05-04 17:58 50.11784 22.40255 35991 ft 461 kts 204°
2026-05-04 17:58 50.05854 22.36489 35995 ft 460 kts 204°
2026-05-04 17:59 49.99946 22.32744 35994 ft 459 kts 204°
2026-05-04 18:00 49.91073 22.27145 36000 ft 461 kts 203°
2026-05-04 18:00 49.85165 22.23429 36006 ft 462 kts 203°
2026-05-04 18:01 49.79206 22.19690 36011 ft 462 kts 203°
2026-05-04 18:01 49.73222 22.15943 36012 ft 461 kts 204°
2026-05-04 18:02 49.64321 22.10393 36010 ft 461 kts 203°
2026-05-04 18:02 49.58379 22.06698 36020 ft 461 kts 203°
2026-05-04 18:03 49.52444 22.03019 36038 ft 462 kts 203°
2026-05-04 18:03 49.46492 21.99337 36050 ft 461 kts 204°
2026-05-04 18:04 49.40562 21.95677 36054 ft 462 kts 203°
2026-05-04 18:05 49.31728 21.89952 36059 ft 461 kts 207°
2026-05-04 18:05 49.25999 21.85526 36065 ft 462 kts 209°
2026-05-04 18:06 49.17458 21.78759 36050 ft 461 kts 209°
2026-05-04 18:06 49.11779 21.74328 36051 ft 463 kts 209°
2026-05-04 18:07 49.06048 21.69899 36045 ft 463 kts 208°
2026-05-04 18:07 49.00304 21.65486 36043 ft 463 kts 208°
2026-05-04 18:08 48.94572 21.61103 36039 ft 463 kts 208°
2026-05-04 18:08 48.88837 21.56734 36041 ft 464 kts 208°
2026-05-04 18:09 48.77288 21.47967 36044 ft 464 kts 208°
2026-05-04 18:10 48.71571 21.43647 36039 ft 463 kts 208°
2026-05-04 18:10 48.65777 21.39276 36040 ft 464 kts 208°
2026-05-04 18:11 48.60043 21.34958 36042 ft 465 kts 207°
2026-05-04 18:11 48.54246 21.30609 36040 ft 465 kts 207°
2026-05-04 18:12 48.48344 21.26693 36039 ft 466 kts 201°
2026-05-04 18:12 48.42206 21.23457 36036 ft 467 kts 199°
2026-05-04 18:13 48.36063 21.20379 36039 ft 466 kts 199°
2026-05-04 18:14 48.26876 21.15661 36037 ft 467 kts 200°
2026-05-04 18:14 48.20781 21.12477 36037 ft 468 kts 200°
2026-05-04 18:15 48.08495 21.06047 36030 ft 467 kts 200°
2026-05-04 18:16 48.02380 21.02853 36034 ft 468 kts 200°
2026-05-04 18:16 47.96271 20.99670 36031 ft 467 kts 200°
2026-05-04 18:17 47.87043 20.94876 36035 ft 469 kts 200°
2026-05-04 18:18 47.77835 20.90115 36035 ft 469 kts 200°
2026-05-04 18:18 47.71677 20.86940 36039 ft 468 kts 200°
2026-05-04 18:19 47.62447 20.82200 36040 ft 469 kts 200°
2026-05-04 18:19 47.56292 20.79048 36036 ft 469 kts 200°
2026-05-04 18:20 47.50131 20.75899 36044 ft 470 kts 200°
2026-05-04 18:20 47.43964 20.72754 36042 ft 469 kts 200°
2026-05-04 18:21 47.37796 20.69619 36041 ft 469 kts 200°
2026-05-04 18:21 47.31640 20.66500 36047 ft 470 kts 200°
2026-05-04 18:22 47.25472 20.63378 36043 ft 469 kts 200°
2026-05-04 18:22 47.19306 20.60265 36045 ft 471 kts 200°
2026-05-04 18:23 47.13125 20.57156 36046 ft 470 kts 200°
2026-05-04 18:23 47.06970 20.54064 36050 ft 470 kts 200°
2026-05-04 18:24 47.00807 20.50976 36047 ft 470 kts 200°
2026-05-04 18:24 46.94604 20.47875 36049 ft 471 kts 200°
2026-05-04 18:25 46.88450 20.44807 36053 ft 470 kts 200°
2026-05-04 18:25 46.82257 20.41729 36051 ft 470 kts 201°
2026-05-04 18:26 46.76104 20.38676 36051 ft 470 kts 200°
2026-05-04 18:26 46.69928 20.35621 36051 ft 470 kts 201°
2026-05-04 18:27 46.63720 20.32556 36050 ft 470 kts 200°
2026-05-04 18:27 46.57540 20.29511 36052 ft 470 kts 200°
2026-05-04 18:28 46.51341 20.26466 36051 ft 470 kts 200°
2026-05-04 18:28 46.45097 20.23405 36053 ft 471 kts 200°
2026-05-04 18:29 46.38885 20.20369 36052 ft 471 kts 200°
2026-05-04 18:29 46.32694 20.17354 36055 ft 472 kts 200°
2026-05-04 18:30 46.23385 20.12825 36053 ft 470 kts 200°
2026-05-04 18:31 46.17139 20.10049 36052 ft 471 kts 194°
2026-05-04 18:31 46.10638 20.08657 36051 ft 473 kts 185°
2026-05-04 18:32 46.04090 20.08130 36055 ft 475 kts 182°
2026-05-04 18:32 45.97478 20.07765 35922 ft 478 kts 182°
2026-05-04 18:32 45.94163 20.07569 35686 ft 478 kts 183°
2026-05-04 18:33 45.90848 20.07354 35448 ft 476 kts 183°
2026-05-04 18:33 45.87552 20.07123 35210 ft 475 kts 183°
2026-05-04 18:33 45.84251 20.06879 35069 ft 473 kts 183°
2026-05-04 18:34 45.77627 20.06373 35057 ft 477 kts 184°
2026-05-04 18:34 45.70995 20.05858 35056 ft 480 kts 184°
2026-05-04 18:35 45.64351 20.05392 35056 ft 478 kts 182°
2026-05-04 18:35 45.57673 20.05132 35060 ft 479 kts 181°
2026-05-04 18:36 45.51033 20.04928 35057 ft 479 kts 182°
2026-05-04 18:36 45.44385 20.04697 35061 ft 480 kts 182°
2026-05-04 18:37 45.37707 20.04441 35061 ft 479 kts 182°
2026-05-04 18:37 45.31057 20.04178 35063 ft 479 kts 182°
2026-05-04 18:38 45.24412 20.03911 35065 ft 480 kts 182°
2026-05-04 18:38 45.17746 20.03646 35063 ft 481 kts 182°
2026-05-04 18:39 45.11081 20.03380 35068 ft 481 kts 182°
2026-05-04 18:39 45.04408 20.03118 35071 ft 481 kts 182°
2026-05-04 18:40 44.97713 20.02853 35076 ft 480 kts 182°
2026-05-04 18:40 44.91061 20.02592 35075 ft 480 kts 182°
2026-05-04 18:41 44.84363 20.02327 35077 ft 481 kts 182°
2026-05-04 18:41 44.77683 20.02066 35078 ft 482 kts 182°
2026-05-04 18:42 44.71004 20.01806 35079 ft 482 kts 182°
2026-05-04 18:42 44.64295 20.01546 35079 ft 482 kts 182°
2026-05-04 18:43 44.57595 20.01286 35080 ft 482 kts 182°
2026-05-04 18:43 44.50944 20.01029 35080 ft 481 kts 182°
2026-05-04 18:44 44.44262 20.00772 35083 ft 483 kts 182°
2026-05-04 18:44 44.37575 20.00513 35085 ft 482 kts 182°
2026-05-04 18:45 44.30852 20.00250 35086 ft 482 kts 182°
2026-05-04 18:45 44.24175 19.99991 35089 ft 482 kts 182°
2026-05-04 18:46 44.17471 19.99736 35093 ft 483 kts 182°
2026-05-04 18:46 44.10740 19.99481 35098 ft 483 kts 182°
2026-05-04 18:47 44.04068 19.99227 35103 ft 483 kts 182°
2026-05-04 18:47 43.97339 19.98970 35110 ft 483 kts 182°
2026-05-04 18:48 43.90631 19.98714 35111 ft 482 kts 182°
2026-05-04 18:48 43.83939 19.98460 35117 ft 483 kts 182°
2026-05-04 18:49 43.77193 19.98203 35116 ft 483 kts 182°
2026-05-04 18:49 43.70522 19.97948 35123 ft 483 kts 182°
2026-05-04 18:50 43.63777 19.97694 35139 ft 484 kts 182°
2026-05-04 18:50 43.57042 19.97447 35148 ft 485 kts 182°
2026-05-04 18:51 43.50328 19.97198 35155 ft 484 kts 182°
2026-05-04 18:51 43.43624 19.96947 35159 ft 483 kts 182°
2026-05-04 18:52 43.36921 19.96695 35156 ft 484 kts 182°
2026-05-04 18:52 43.30154 19.96440 35156 ft 486 kts 182°
2026-05-04 18:53 43.23432 19.96191 35154 ft 486 kts 182°
2026-05-04 18:53 43.16666 19.95936 35156 ft 486 kts 182°
2026-05-04 18:54 43.09932 19.95687 35158 ft 485 kts 182°
2026-05-04 18:54 43.03195 19.95439 35160 ft 484 kts 182°
2026-05-04 18:55 42.96458 19.95188 35164 ft 486 kts 182°
2026-05-04 18:55 42.86310 19.94817 35170 ft 487 kts 182°
2026-05-04 18:56 42.79541 19.94568 35178 ft 487 kts 182°
2026-05-04 18:56 42.72774 19.94323 35184 ft 486 kts 183°
2026-05-04 18:57 42.66038 19.94080 35181 ft 486 kts 182°
2026-05-04 18:57 42.59279 19.93836 35184 ft 487 kts 182°
2026-05-04 18:58 42.52508 19.93590 35187 ft 487 kts 182°
2026-05-04 18:58 42.45744 19.93343 35183 ft 487 kts 183°
2026-05-04 18:59 42.38967 19.93099 35170 ft 486 kts 183°
2026-05-04 18:59 42.32224 19.92856 35163 ft 487 kts 183°
2026-05-04 19:00 42.25428 19.92611 35158 ft 488 kts 183°
2026-05-04 19:00 42.18641 19.92365 35153 ft 488 kts 183°
2026-05-04 19:01 42.11897 19.92120 35149 ft 487 kts 183°
2026-05-04 19:01 42.05124 19.91875 35148 ft 488 kts 183°
2026-05-04 19:02 41.98323 19.91631 35148 ft 487 kts 183°
2026-05-04 19:02 41.91572 19.91394 35147 ft 488 kts 183°
2026-05-04 19:03 41.84743 19.91153 35145 ft 490 kts 183°
2026-05-04 19:03 41.77941 19.90914 35143 ft 490 kts 183°
2026-05-04 19:04 41.71151 19.90674 35144 ft 489 kts 183°
2026-05-04 19:04 41.64346 19.90432 35147 ft 490 kts 183°
2026-05-04 19:05 41.57486 19.90186 34954 ft 492 kts 184°
2026-05-04 19:05 41.54086 19.90069 34698 ft 491 kts 184°
2026-05-04 19:05 41.50648 19.89951 34295 ft 493 kts 184°
2026-05-04 19:06 41.47250 19.89833 33812 ft 495 kts 184°
2026-05-04 19:06 41.43795 19.89712 33323 ft 497 kts 184°
2026-05-04 19:06 41.40342 19.89588 32837 ft 497 kts 184°
2026-05-04 19:06 41.36887 19.89467 32351 ft 497 kts 183°
2026-05-04 19:07 41.33453 19.89347 31868 ft 496 kts 183°
2026-05-04 19:07 41.29964 19.89226 31379 ft 498 kts 184°
2026-05-04 19:07 41.26531 19.89107 30898 ft 499 kts 184°
2026-05-04 19:07 41.23060 19.88987 30418 ft 500 kts 183°
2026-05-04 19:08 41.19549 19.88867 29931 ft 501 kts 184°
2026-05-04 19:08 41.16061 19.88745 29459 ft 502 kts 183°
2026-05-04 19:08 41.12559 19.88623 28986 ft 503 kts 183°
2026-05-04 19:08 41.09056 19.88501 28513 ft 504 kts 183°
2026-05-04 19:09 41.05566 19.88380 28039 ft 505 kts 183°
2026-05-04 19:09 41.02081 19.88258 27572 ft 506 kts 183°
2026-05-04 19:09 40.98527 19.88134 27105 ft 508 kts 183°
2026-05-04 19:09 40.94989 19.88011 26639 ft 509 kts 183°
2026-05-04 19:10 40.91480 19.87891 26175 ft 510 kts 183°
2026-05-04 19:10 40.87911 19.87769 25705 ft 511 kts 183°
2026-05-04 19:10 40.84356 19.87648 25240 ft 511 kts 183°
2026-05-04 19:10 40.80786 19.87526 24775 ft 509 kts 182°
2026-05-04 19:11 40.77261 19.87406 24311 ft 504 kts 183°
2026-05-04 19:11 40.73777 19.87287 23852 ft 499 kts 183°
2026-05-04 19:11 40.70301 19.87167 23388 ft 497 kts 183°
2026-05-04 19:11 40.66900 19.87050 22940 ft 494 kts 183°
2026-05-04 19:12 40.63466 19.86931 22485 ft 490 kts 183°
2026-05-04 19:12 40.56681 19.86700 21585 ft 484 kts 182°
2026-05-04 19:12 40.53315 19.86585 21130 ft 481 kts 182°
2026-05-04 19:13 40.49979 19.86473 20681 ft 478 kts 182°
2026-05-04 19:13 40.46693 19.86369 20232 ft 474 kts 182°
2026-05-04 19:13 40.43427 19.86261 19784 ft 466 kts 182°
2026-05-04 19:13 40.40199 19.86150 19339 ft 464 kts 182°
2026-05-04 19:14 40.36938 19.86037 18889 ft 464 kts 182°
2026-05-04 19:14 40.33725 19.85925 18443 ft 463 kts 182°
2026-05-04 19:14 40.30537 19.85814 17997 ft 456 kts 182°
2026-05-04 19:14 40.27378 19.85706 17545 ft 451 kts 182°
2026-05-04 19:15 40.24263 19.85600 17113 ft 451 kts 182°
2026-05-04 19:15 40.21120 19.85493 16714 ft 449 kts 182°
2026-05-04 19:15 40.17990 19.85387 16321 ft 447 kts 182°
2026-05-04 19:15 40.14892 19.85282 15927 ft 445 kts 182°
2026-05-04 19:16 40.11805 19.85178 15524 ft 442 kts 182°
2026-05-04 19:16 40.08744 19.85075 15127 ft 433 kts 182°
2026-05-04 19:16 40.05761 19.84975 14726 ft 422 kts 182°
2026-05-04 19:16 40.02879 19.84879 14425 ft 410 kts 182°
2026-05-04 19:17 40.00043 19.84786 14162 ft 397 kts 182°
2026-05-04 19:17 39.97352 19.84697 13923 ft 385 kts 182°
2026-05-04 19:17 39.94698 19.84607 13679 ft 377 kts 182°
2026-05-04 19:17 39.92099 19.84518 13400 ft 370 kts 182°
2026-05-04 19:18 39.89561 19.84339 13144 ft 360 kts 186°
2026-05-04 19:18 39.87113 19.83940 12855 ft 351 kts 190°
2026-05-04 19:18 39.84731 19.83419 12192 ft 347 kts 191°
2026-05-04 19:18 39.82357 19.82848 11517 ft 342 kts 191°
2026-05-04 19:19 39.80043 19.82287 10882 ft 337 kts 191°
2026-05-04 19:19 39.77767 19.81752 10517 ft 326 kts 191°
2026-05-04 19:19 39.75583 19.81253 10434 ft 317 kts 190°
2026-05-04 19:19 39.73439 19.80771 10350 ft 310 kts 190°
2026-05-04 19:20 39.71328 19.80302 10146 ft 310 kts 190°
2026-05-04 19:20 39.69189 19.79828 9732 ft 307 kts 190°
2026-05-04 19:20 39.67108 19.79367 9353 ft 297 kts 190°
2026-05-04 19:20 39.65117 19.78927 9017 ft 290 kts 189°
2026-05-04 19:21 39.63095 19.78481 8636 ft 293 kts 189°
2026-05-04 19:21 39.61096 19.78039 8274 ft 291 kts 189°
2026-05-04 19:21 39.59109 19.77597 7914 ft 290 kts 189°
2026-05-04 19:21 39.57125 19.77160 7549 ft 288 kts 189°
2026-05-04 19:22 39.55181 19.76734 7205 ft 281 kts 189°
2026-05-04 19:22 39.53251 19.76309 6865 ft 278 kts 189°
2026-05-04 19:22 39.51342 19.75889 6508 ft 277 kts 189°
2026-05-04 19:22 39.49470 19.75477 6154 ft 272 kts 189°
2026-05-04 19:23 39.47604 19.75067 5826 ft 265 kts 189°
2026-05-04 19:23 39.45802 19.74670 5405 ft 265 kts 189°
2026-05-04 19:23 39.43956 19.74411 5005 ft 265 kts 179°
2026-05-04 19:23 39.42206 19.74895 4687 ft 255 kts 150°
2026-05-04 19:24 39.40895 19.76343 4387 ft 245 kts 124°
2026-05-04 19:24 39.40086 19.78247 4096 ft 238 kts 109°
2026-05-04 19:24 39.39732 19.80265 3957 ft 230 kts 90°
2026-05-04 19:24 39.39766 19.82347 3894 ft 233 kts 85°
2026-05-04 19:25 39.39853 19.84456 3815 ft 234 kts 86°
2026-05-04 19:25 39.39909 19.86546 3742 ft 233 kts 85°
2026-05-04 19:25 39.40110 19.88612 3559 ft 236 kts 76°
2026-05-04 19:25 39.40550 19.90644 3264 ft 234 kts 71°
2026-05-04 19:26 39.41049 19.92628 3035 ft 230 kts 71°
2026-05-04 19:26 39.41584 19.94547 2976 ft 221 kts 64°
2026-05-04 19:26 39.42410 19.96089 2936 ft 201 kts 38°
2026-05-04 19:26 39.43637 19.96788 2813 ft 188 kts
2026-05-04 19:27 39.44925 19.96813 2618 ft 181 kts 353°
2026-05-04 19:27 39.46109 19.96449 2463 ft 169 kts 343°
2026-05-04 19:27 39.47186 19.96002 2322 ft 155 kts 343°
2026-05-04 19:27 39.48176 19.95612 2215 ft 146 kts 344°
2026-05-04 19:28 39.49159 19.95241 2087 ft 145 kts 344°
2026-05-04 19:28 39.50124 19.94876 1928 ft 145 kts 343°
2026-05-04 19:28 39.51087 19.94444 1740 ft 146 kts 340°
2026-05-04 19:28 39.52037 19.93965 1521 ft 147 kts 339°
2026-05-04 19:29 39.52994 19.93462 1312 ft 149 kts 338°
2026-05-04 19:29 39.53962 19.92993 1107 ft 148 kts 341°
2026-05-04 19:29 39.54934 19.92585 899 ft 147 kts 346°
2026-05-04 19:29 39.55948 19.92284 725 ft 147 kts 349°
2026-05-04 19:30 39.56956 19.92035 518 ft 148 kts 350°
2026-05-04 19:30 39.57971 19.91792 313 ft 149 kts 349°
2026-05-04 19:30 39.58984 19.91529 88 ft 149 kts 348°
2026-05-04 19:30 39.59956 19.91272 14 ft 119 kts 348°
2026-05-04 19:31 39.60434 19.91149 16 ft 24 kts 356°
2026-05-04 19:31 39.60563 19.91179 17 ft 13 kts 22°
2026-05-04 19:31 39.60612 19.91207 18 ft 4 kts 24°
2026-05-04 19:31 39.60660 19.91223 19 ft 7 kts 356°
2026-05-04 19:32 39.60721 19.91209 19 ft 12 kts 348°
2026-05-04 19:32 39.60785 19.91199 19 ft 5 kts 21°
2026-05-04 19:32 39.60801 19.91233 20 ft 5 kts 77°
2026-05-04 19:32 39.60808 19.91277 20 ft 4 kts 78°
2026-05-04 19:33 39.60813 19.91313 20 ft 0 kts 78°